Location: Kra?nica
(53.4833°N, 14.6167°E)
Time: 20:05:32
(UTC+00:00)

Meteor 1-21 - Pass Details

Date: 23 May 2024
Orbit: 844 x 886 km, 81.2° (Epoch: 20 June)

Event Time Altitude Azimuth Distance (km) Brightness Sun altitude
Exits shadow 00:04:41 21° 191° (S) 1,827 5.3 -14.5°
Maximum altitude 00:08:35 88° 105° (ESE) 876 4.3 -14.3°
Drops below altitude 10° 00:14:23 10° 14° (NNE) 2,539 8.1 -14.1°
Sets 00:16:51 0° 14° (NNE) 3,487 9.4 -14.0°
